TimePDT,TemperatureF,Dew PointF,Humidity,Sea Level PressureIn,VisibilityMPH,Wind Direction,Wind SpeedMPH,Gust SpeedMPH,PrecipitationIn,Events,Conditions,WindDirDegrees,DateUTC
12:53 AM,52.0,50.0,93,29.91,8.0,South,6.9,-,N/A,,Overcast,180,2013-07-29 07:53:00
1:53 AM,53.1,50.0,89,29.90,9.0,SE,4.6,-,N/A,,Overcast,140,2013-07-29 08:53:00
2:53 AM,52.0,48.9,89,29.89,10.0,SSE,5.8,-,N/A,,Overcast,160,2013-07-29 09:53:00
3:53 AM,52.0,48.9,89,29.89,10.0,SSE,5.8,-,N/A,,Overcast,150,2013-07-29 10:53:00
4:53 AM,52.0,50.0,93,29.90,10.0,ESE,4.6,-,N/A,,Overcast,120,2013-07-29 11:53:00
5:53 AM,51.1,48.9,92,29.89,10.0,Calm,Calm,-,N/A,,Overcast,0,2013-07-29 12:53:00
6:53 AM,51.1,50.0,96,29.91,10.0,SE,3.5,-,N/A,,Overcast,130,2013-07-29 13:53:00
7:13 AM,51.8,50.0,94,29.89,4.0,Calm,Calm,-,N/A,,Overcast,0,2013-07-29 14:13:00
7:53 AM,51.1,50.0,96,29.92,7.0,Calm,Calm,-,N/A,,Overcast,0,2013-07-29 14:53:00
8:44 AM,51.8,50.0,94,29.91,9.0,SW,3.5,-,N/A,,Overcast,230,2013-07-29 15:44:00
8:53 AM,52.0,48.9,89,29.93,8.0,Calm,Calm,-,N/A,,Overcast,0,2013-07-29 15:53:00
9:53 AM,53.1,50.0,89,29.94,5.0,Variable,3.5,-,N/A,,Overcast,0,2013-07-29 16:53:00
10:53 AM,54.0,50.0,86,29.95,5.0,WSW,6.9,-,N/A,,Overcast,250,2013-07-29 17:53:00
11:53 AM,55.0,50.0,83,29.97,7.0,SW,10.4,-,N/A,,Overcast,230,2013-07-29 18:53:00
12:53 PM,59.0,51.1,75,29.98,10.0,Variable,4.6,-,N/A,,Overcast,0,2013-07-29 19:53:00
1:53 PM,57.9,51.1,78,29.99,10.0,West,5.8,-,N/A,,Overcast,260,2013-07-29 20:53:00
2:53 PM,57.0,51.1,81,30.00,10.0,Variable,4.6,-,N/A,,Overcast,0,2013-07-29 21:53:00
3:53 PM,57.0,50.0,77,30.01,10.0,NW,8.1,-,N/A,,Mostly Cloudy,310,2013-07-29 22:53:00
4:53 PM,59.0,50.0,72,30.01,10.0,NNW,9.2,-,N/A,,Clear,330,2013-07-29 23:53:00
5:53 PM,55.0,50.0,83,30.05,10.0,NW,8.1,-,N/A,,Partly Cloudy,310,2013-07-30 00:53:00
6:08 PM,55.4,50.0,82,30.03,10.0,NW,6.9,-,N/A,,Mostly Cloudy,310,2013-07-30 01:08:00
6:16 PM,55.4,50.0,82,30.03,10.0,NW,5.8,-,N/A,,Mostly Cloudy,320,2013-07-30 01:16:00
6:53 PM,55.0,50.0,83,30.05,10.0,Calm,Calm,-,N/A,,Mostly Cloudy,0,2013-07-30 01:53:00
7:10 PM,55.4,50.0,82,30.04,10.0,West,6.9,-,N/A,,Mostly Cloudy,270,2013-07-30 02:10:00
7:21 PM,53.6,50.0,88,30.05,10.0,West,8.1,-,N/A,,Scattered Clouds,280,2013-07-30 02:21:00
7:49 PM,53.6,50.0,88,30.05,10.0,West,4.6,-,N/A,,Mostly Cloudy,280,2013-07-30 02:49:00
7:53 PM,53.1,50.0,89,30.07,10.0,Calm,Calm,-,N/A,,Mostly Cloudy,0,2013-07-30 02:53:00
8:17 PM,53.6,50.0,88,30.05,10.0,Calm,Calm,-,N/A,,Overcast,0,2013-07-30 03:17:00
8:53 PM,53.1,50.0,89,30.07,9.0,Calm,Calm,-,N/A,,Overcast,0,2013-07-30 03:53:00
9:53 PM,52.0,48.9,89,30.08,10.0,Calm,Calm,-,N/A,,Mostly Cloudy,0,2013-07-30 04:53:00
10:53 PM,53.1,50.0,89,30.09,8.0,Calm,Calm,-,N/A,,Overcast,0,2013-07-30 05:53:00
11:53 PM,53.1,50.0,89,30.10,10.0,South,4.6,-,N/A,,Overcast,170,2013-07-30 06:53:00